Wind_Speed
68 68 69 69 69 69 69 69 69 70 70 71 71 71 72 72 72 72 72 72 72 72 72 73 73 73 73 73 74 74 74 75 75 75 76 76 77 77 78 78 79 79 79 80 80 81 82 82 82 82 82 82 83 83 84 84 85 85 85 86 86 86 88 88 86 86 87 85 81 84 88 87 87 89 92 93 93 94 94 93 93 91 88 88 93 94 95 95
67 68 68 68 69 69 69 69 69 70 70 70 71 71 72 72 72 73 73 73 73 73 73 73 73 73 73 73 74 74 74 75 75 75 76 77 77 78 78 78 78 78 79 79 80 81 81 82 82 82 81 81 81 81 82 83 83 83 84 85 86 87 89 87 85 85 85 84 81 84 86 85 85 86 88 90 91 92 93 93 92 91 88 86 89 91 92 94
66 67 67 68 68 68 69 69 69 69 69 69 69 70 70 71 71 72 72 72 72 72 72 72 72 73 73 73 73 74 74 74 74 75 76 76 77 78 78 78 78 78 78 79 80 80 81 81 81 81 81 80 81 80 81 81 81 82 83 83 85 87 86 85 85 85 84 83 83 84 85 84 83 84 86 86 87 88 89 89 88 89 89 88 90 92 93 93
66 67 67 68 68 69 69 69 68 68 67 67 68 68 68 69 69 70 70 71 71 71 71 71 71 72 72 72 73 73 73 73 72 74 75 75 76 77 78 78 78 78 78 78 79 80 80 81 81 81 81 80 80 80 80 80 81 82 81 82 84 84 83 83 84 83 83 83 83 85 85 83 82 83 84 84 85 86 85 84 84 85 87 88 87 88 90 92
67 67 68 68 68 68 68 67 66 65 65 65 66 66 67 67 68 68 69 69 69 70 70 70 70 71 71 71 72 72 72 71 70 72 73 74 74 75 77 77 77 77 77 78 78 79 79 79 80 80 79 79 79 79 79 80 81 80 80 83 83 80 81 82 80 80 81 82 83 84 84 83 83 82 82 83 84 85 83 81 81 80 82 83 81 82 85 86
67 67 67 67 67 66 65 65 64 64 64 64 64 65 65 66 66 67 68 68 68 68 69 69 69 69 70 70 70 70 69 68 68 70 71 71 72 73 74 75 76 76 76 77 77 77 78 78 78 78 78 78 78 78 79 79 79 79 80 82 80 79 81 79 77 79 79 80 81 82 83 83 83 82 81 82 82 83 83 81 78 74 72 74 77 80 81 81
66 66 65 65 64 64 63 63 63 63 62 63 63 64 64 65 65 66 67 67 67 67 68 68 68 68 68 68 67 67 66 65 66 68 68 68 69 70 71 72 73 74 75 75 76 76 76 76 77 77 77 77 76 76 78 77 77 78 79 79 78 79 79 76 76 78 77 78 79 80 81 82 81 81 80 81 80 81 82 80 77 75 71 70 75 80 79 79
64 64 63 63 62 62 62 62 62 62 62 62 63 63 64 64 65 65 66 66 66 66 66 66 66 65 65 65 65 64 63 62 64 65 65 66 67 67 68 69 70 72 72 73 74 74 74 75 75 75 75 75 74 75 76 74 75 77 77 77 77 77 77 75 75 76 76 76 76 77 79 79 79 79 79 80 78 79 80 78 77 78 76 73 77 79 78 77
62 62 62 61 61 61 61 61 61 62 62 62 62 63 63 64 64 65 65 65 65 65 65 64 64 63 62 62 62 61 60 61 62 63 64 64 65 65 66 67 68 69 70 71 72 72 73 72 73 74 73 73 72 73 73 72 74 76 75 76 75 76 75 74 73 74 75 74 74 75 77 77 77 77 77 78 76 77 78 76 76 77 76 74 75 75 75 73
61 61 61 61 61 61 61 61 61 61 62 62 62 63 63 63 63 63 64 64 63 63 62 62 61 61 60 60 60 58 58 60 61 61 63 63 63 64 64 65 66 67 68 69 70 71 71 71 72 72 72 72 71 72 71 71 74 74 73 74 73 75 74 73 72 73 73 72 72 73 75 75 73 74 76 74 74 75 75 75 76 75 74 74 73 72 72 70
60 60 60 60 60 60 60 61 61 61 61 61 61 61 61 61 61 61 61 61 61 60 60 59 59 58 58 58 58 56 57 59 59 60 61 62 62 62 63 64 65 66 66 67 68 69 70 70 71 71 72 71 70 71 70 70 72 70 72 73 72 74 73 71 71 71 71 70 70 71 72 71 70 73 74 71 72 73 73 74 75 73 72 71 70 70 69 68
60 60 59 59 59 60 60 60 60 60 60 60 60 59 59 59 59 58 58 58 58 58 57 57 56 56 56 56 56 55 56 57 58 59 60 60 61 61 62 62 63 64 64 65 67 68 69 70 71 72 71 69 70 71 68 68 69 68 70 70 70 72 70 69 69 69 69 68 68 68 69 68 68 72 72 69 71 72 72 73 73 72 71 69 69 69 68 68
59 59 58 58 58 58 58 58 58 58 58 57 57 57 56 56 56 56 56 56 56 55 55 54 54 54 54 54 54 55 55 55 56 57 58 58 59 59 60 61 61 62 62 64 65 66 68 69 71 71 69 70 71 68 65 67 67 67 69 68 68 69 67 67 68 67 67 66 66 66 66 66 67 71 69 67 70 71 71 72 72 71 71 69 68 68 68 67
58 57 57 56 56 55 55 55 56 56 55 55 54 54 54 54 54 53 54 54 54 53 53 53 52 52 52 52 52 53 53 53 54 55 56 57 58 58 58 59 60 60 61 63 64 66 67 68 69 69 69 70 68 65 66 67 66 66 67 66 65 65 65 67 66 64 65 65 64 64 65 64 66 69 67 65 69 70 71 71 72 72 71 69 68 67 67 66
57 55 54 54 53 53 53 53 53 53 53 52 52 52 52 52 51 51 52 52 52 52 51 51 51 51 51 50 51 52 51 51 52 53 55 56 56 57 57 57 58 59 60 62 63 64 65 66 67 67 67 67 66 65 67 66 65 65 64 63 63 63 65 66 63 62 64 63 62 62 63 63 67 67 63 65 68 70 70 70 71 72 69 67 67 66 66 65
56 54 53 52 52 52 51 51 51 51 51 50 50 50 50 50 49 50 50 50 50 50 49 49 49 49 49 49 49 50 49 50 51 52 53 54 54 54 55 55 56 57 59 60 61 62 64 64 65 65 66 66 65 65 66 65 65 64 63 62 62 62 64 63 60 61 63 61 60 61 62 65 68 64 62 66 68 68 69 69 70 70 66 65 64 64 64 64
57 55 53 52 51 51 50 50 50 49 49 49 48 48 49 48 48 48 48 48 48 48 48 47 48 48 47 47 47 48 48 49 50 51 52 52 52 52 53 53 54 55 57 58 59 60 61 62 63 64 64 64 64 64 64 64 64 64 63 63 62 61 62 61 58 60 61 58 59 62 63 66 66 62 62 66 66 67 68 66 69 68 64 64 63 63 63 63
59 57 55 53 52 51 50 50 49 49 48 48 47 47 47 47 46 46 46 46 46 46 46 46 46 45 44 45 46 46 47 47 48 49 49 50 50 50 50 51 52 53 55 56 57 58 59 60 61 61 61 62 63 63 64 64 65 64 63 63 61 60 61 61 58 59 59 57 59 62 62 65 65 62 63 65 65 66 66 65 67 67 64 63 62 61 62 61
60 58 56 55 53 51 50 50 49 48 48 47 47 47 47 45 44 45 45 45 44 44 44 44 44 43 42 43 43 44 45 46 47 47 47 47 47 47 48 49 50 51 52 54 55 55 56 57 58 58 59 61 61 62 63 64 63 62 62 62 61 61 61 62 59 56 57 58 59 61 62 65 64 62 62 64 64 64 65 64 65 65 63 62 61 59 59 59
61 59 57 55 53 52 50 49 49 48 47 47 47 47 46 44 43 44 44 43 43 43 43 43 43 41 40 41 41 43 44 44 45 45 45 45 45 46 47 47 48 50 50 52 53 53 54 55 55 56 58 58 59 61 61 60 59 61 63 62 63 63 62 64 59 53 57 60 60 61 62 63 64 63 61 61 63 63 64 64 64 64 62 60 59 57 57 57
60 59 57 55 54 52 51 49 48 47 47 47 47 47 46 43 42 43 43 42 41 42 42 42 41 39 39 39 40 41 42 42 43 44 44 44 44 44 45 46 47 48 49 49 50 52 52 52 54 55 55 55 56 58 57 58 60 62 62 62 63 63 63 64 57 52 58 61 60 61 61 62 64 62 59 60 62 62 63 63 62 62 61 58 57 56 55 56
60 58 57 55 54 52 51 49 48 47 47 47 48 47 45 43 42 42 43 41 40 41 41 40 40 38 37 38 40 40 40 41 42 42 42 42 42 43 44 44 45 46 47 47 48 50 50 51 52 52 51 52 54 56 56 57 60 60 61 61 61 62 63 61 56 56 60 61 60 60 60 62 63 61 59 61 62 62 62 62 60 60 59 57 56 55 54 54
58 57 56 55 53 52 51 49 47 47 47 47 47 47 45 43 42 42 42 41 39 40 41 39 38 37 36 38 39 38 38 40 40 41 41 41 41 41 42 43 44 45 45 46 47 48 49 50 50 49 49 51 53 54 55 56 57 58 59 60 60 61 61 59 58 59 60 60 60 59 60 61 61 61 61 61 61 61 61 60 59 57 56 55 54 53 51 51
57 56 55 54 53 52 51 50 47 47 47 47 47 47 46 43 42 42 42 41 39 39 41 39 36 36 37 38 38 36 37 38 38 39 40 40 39 40 41 41 42 44 45 46 46 47 48 47 46 47 49 51 52 52 53 54 55 57 57 58 58 59 59 58 58 58 57 59 60 59 59 60 60 61 61 61 61 60 59 58 56 54 53 52 51 49 48 49
54 54 53 53 52 51 51 50 48 47 46 46 47 48 46 43 43 43 42 41 38 38 40 38 36 36 37 38 36 35 36 37 38 39 39 38 38 39 39 40 41 44 45 45 45 46 45 44 46 48 49 50 50 51 51 52 53 54 55 56 56 55 56 55 54 55 57 58 59 58 58 58 59 61 61 59 59 57 56 55 53 51 49 49 49 46 45 46
52 52 52 52 51 50 51 50 49 47 45 46 48 48 46 44 43 43 42 42 39 38 39 38 36 36 37 38 36 34 35 36 37 37 38 38 38 39 39 40 42 43 44 44 45 44 43 45 47 48 48 49 49 50 50 51 51 52 53 53 52 52 53 52 51 54 55 55 57 56 56 57 58 59 59 58 56 53 52 52 50 46 43 42 42 40 41 42
51 50 51 51 50 50 50 50 49 47 45 46 47 47 46 45 44 44 43 42 40 38 38 38 37 36 36 38 36 33 34 35 36 36 37 37 37 38 39 40 41 42 43 44 44 44 44 46 47 46 47 48 48 49 49 50 50 50 50 50 49 49 50 49 50 51 52 53 55 54 55 55 55 56 57 56 52 50 50 50 47 44 40 39 37 36 38 37
49 49 50 50 49 49 49 50 49 47 46 47 47 46 46 45 44 44 43 42 41 39 38 38 38 37 36 37 36 33 33 35 35 35 36 36 37 38 38 39 40 41 42 43 44 44 44 45 45 45 47 48 48 48 48 49 48 48 48 48 47 47 47 48 49 49 50 52 52 53 53 52 53 54 53 53 51 50 49 47 45 42 39 37 36 35 34 32
48 48 49 49 48 49 49 49 49 49 48 48 47 46 46 45 44 44 43 41 41 42 40 38 38 37 37 38 36 34 34 35 34 34 35 36 37 37 38 38 39 40 42 43 44 43 43 44 44 46 48 48 47 46 48 49 47 47 48 47 46 46 46 48 48 48 50 50 50 51 50 51 53 51 50 50 49 47 45 42 40 37 35 35 36 36 33 27
47 48 48 48 48 49 49 49 50 51 51 49 48 47 46 45 44 44 41 40 43 45 42 39 38 38 38 38 36 35 35 33 32 34 35 36 37 37 37 37 38 39 41 43 43 42 44 44 45 47 48 47 46 47 49 49 47 48 47 46 46 46 46 47 47 47 49 49 49 49 49 51 52 48 47 47 45 44 42 38 37 35 34 35 36 37 33 25
47 48 48 49 49 49 49 50 51 52 52 50 49 47 47 46 45 42 40 42 46 45 43 40 39 39 38 37 37 36 35 33 33 34 34 35 36 36 36 36 37 38 41 42 42 43 45 45 46 48 48 47 47 49 49 48 48 47 47 47 46 46 46 47 47 47 48 48 48 47 48 50 50 47 44 44 43 42 41 38 36 36 36 36 36 37 32 26
47 48 49 50 50 50 50 51 52 53 53 52 50 48 47 46 44 41 41 47 49 45 44 43 41 39 39 38 37 37 36 34 34 34 33 34 36 36 36 36 36 39 41 41 43 45 45 45 47 48 48 48 48 48 48 48 48 47 47 47 45 46 47 47 47 47 47 48 47 46 47 48 49 46 41 40 41 39 37 37 36 37 38 36 36 35 29 26
48 49 50 50 51 50 50 52 53 53 54 53 51 49 48 46 43 42 45 50 49 46 45 44 42 40 39 38 38 36 36 35 34 34 33 34 35 35 36 35 35 38 40 41 42 44 45 46 46 47 47 47 48 48 48 48 48 48 48 47 45 47 49 48 47 47 48 48 47 47 47 47 48 44 37 37 39 36 34 34 33 33 33 31 32 32 30 31
48 49 50 51 51 51 51 52 53 54 54 53 52 50 47 45 43 45 49 52 50 47 46 44 43 42 40 39 38 38 38 36 34 34 33 33 34 34 36 35 35 37 39 40 41 43 45 45 46 47 47 48 48 48 48 48 48 48 47 46 46 48 50 49 47 48 49 49 48 47 47 48 47 42 38 39 39 37 36 35 33 32 31 29 30 31 32 35
48 49 50 51 52 52 52 52 53 54 54 54 53 50 47 45 45 49 53 54 51 47 46 46 44 42 41 41 40 40 39 35 34 34 33 33 33 34 35 35 36 37 38 38 40 42 44 45 46 48 47 48 49 49 49 49 48 48 48 47 48 49 50 48 48 49 49 49 48 46 47 47 44 40 40 42 42 38 35 34 34 35 35 36 35 35 36 39
48 49 50 51 52 52 53 53 54 54 54 54 53 50 48 47 49 53 55 54 51 47 47 47 45 43 44 44 41 40 38 35 34 34 32 32 33 34 35 36 36 37 37 38 40 42 44 46 47 47 47 48 50 49 49 48 48 48 48 48 49 50 49 49 49 50 49 49 47 46 46 46 44 42 39 38 38 35 32 31 31 33 35 38 39 40 40 42
48 50 51 52 53 53 54 54 55 55 56 55 52 50 50 50 52 55 55 53 52 49 48 47 46 44 45 46 42 39 38 36 34 34 32 32 33 33 34 36 37 37 37 37 40 42 44 45 45 46 48 49 49 49 48 48 49 48 47 49 50 50 50 50 50 49 48 49 48 47 47 47 46 45 40 37 37 36 36 34 30 30 32 35 38 40 41 43
50 51 53 54 55 55 56 56 56 57 57 56 52 51 53 53 54 56 54 54 55 52 48 47 47 45 45 46 42 39 38 37 35 36 34 33 33 32 34 36 36 37 38 37 39 41 41 43 44 45 47 48 47 48 47 48 49 48 49 50 49 49 50 49 50 50 49 49 50 49 49 49 48 46 42 42 43 42 43 40 36 36 37 35 34 35 38 42
50 52 53 55 55 56 57 57 57 58 57 56 54 54 56 55 56 57 55 55 56 53 48 48 48 46 45 46 43 39 39 38 37 38 37 35 33 32 35 37 36 37 38 38 38 38 39 42 43 44 46 46 47 47 46 48 50 49 51 51 49 50 49 47 48 50 50 51 52 51 49 49 49 47 45 44 44 45 45 43 41 40 39 37 34 33 35 38
50 51 52 54 54 55 57 57 57 57 57 57 56 56 57 57 57 57 55 56 57 54 51 50 47 45 46 47 44 40 39 41 39 37 37 37 34 34 37 37 36 37 39 39 39 38 38 40 41 43 44 44 46 47 47 49 50 49 50 50 50 51 49 47 47 48 50 51 51 51 50 50 50 48 47 46 45 45 44 43 44 43 42 41 39 38 38 37
50 50 51 52 53 54 55 56 56 57 57 57 56 57 57 56 56 57 56 57 57 54 53 50 47 48 49 47 45 43 42 42 39 39 40 38 35 36 38 38 37 38 39 41 41 40 38 39 40 42 42 43 46 47 47 49 49 49 50 50 51 51 50 50 49 48 49 50 50 51 52 52 52 52 51 50 49 47 45 47 49 49 48 46 43 41 39 37
50 50 50 51 52 53 54 55 56 56 56 56 56 56 56 54 56 58 58 57 57 55 54 51 48 50 49 47 47 47 44 42 42 43 43 40 37 38 39 39 39 40 41 42 42 41 40 39 39 40 41 43 45 45 45 47 49 49 49 50 51 50 50 50 50 50 51 51 51 52 52 53 54 53 54 54 53 50 47 48 51 51 50 48 44 43 42 41
46 47 47 47 48 49 51 52 54 54 56 56 56 56 56 55 57 59 58 57 56 56 54 51 50 51 50 49 49 47 44 44 45 45 44 44 43 41 40 41 41 42 42 42 42 42 43 41 39 39 40 42 43 43 45 48 48 48 48 49 50 49 49 48 49 51 52 51 52 53 53 52 52 53 54 55 55 52 50 49 51 52 51 49 47 46 46 45
40 41 41 41 42 43 44 46 48 50 51 52 53 56 57 57 58 58 57 57 57 56 54 52 52 51 50 50 49 48 47 47 46 46 47 47 45 44 44 44 42 41 41 41 42 45 46 44 41 40 40 41 40 41 45 47 46 46 48 48 48 48 48 48 49 50 50 50 52 53 53 53 53 54 55 55 54 53 52 52 53 53 52 50 50 49 49 48
37 37 37 36 37 38 39 40 43 45 46 46 48 52 55 56 58 58 58 59 58 56 55 54 53 51 50 51 51 51 50 49 49 50 50 49 47 47 48 45 42 40 39 40 42 45 47 46 45 44 43 42 42 42 44 44 44 47 48 47 47 48 48 48 48 49 49 50 51 52 52 53 54 53 52 52 52 51 51 51 52 52 51 49 49 48 48 48
35 34 33 32 33 36 36 35 37 40 42 42 43 47 51 53 55 58 59 60 58 56 55 55 53 51 52 53 53 53 52 52 52 51 51 51 50 50 49 45 42 41 40 41 42 44 46 47 48 48 47 47 47 45 44 43 44 47 47 47 48 49 49 49 50 51 51 51 51 52 53 54 54 52 50 50 50 49 49 50 50 49 49 48 47 45 45 46
33 32 30 30 30 32 33 33 33 36 38 38 39 42 46 48 50 54 57 58 57 56 56 56 54 54 54 53 54 54 54 54 54 53 55 54 52 52 51 46 44 43 42 42 42 44 46 47 49 51 51 51 49 46 45 46 47 48 47 47 49 49 49 50 51 51 50 50 52 52 51 52 54 53 52 53 52 49 47 48 48 48 48 48 47 47 46 47
30 28 27 26 25 26 28 29 30 31 32 33 34 38 42 43 45 48 51 54 56 57 57 57 56 56 55 54 55 55 55 56 56 56 56 54 52 53 51 47 46 46 44 44 44 45 46 47 49 52 53 52 49 47 49 50 49 49 48 48 48 48 49 50 49 49 49 51 52 50 48 50 53 51 51 53 54 52 50 51 51 51 51 52 52 52 53 53
26 25 24 23 21 21 22 24 25 27 28 29 31 34 37 39 41 43 45 48 52 56 58 59 59 58 57 56 56 56 56 57 57 56 55 54 54 54 51 48 47 47 47 46 45 44 46 48 49 51 53 52 51 51 52 52 51 51 49 48 48 49 49 49 49 49 49 49 49 48 48 52 53 52 51 53 54 54 54 54 55 55 56 56 56 57 57 57
24 23 22 20 18 17 18 19 21 23 25 27 29 31 33 35 37 40 41 44 48 52 56 59 59 59 58 57 56 55 56 58 57 57 57 56 55 54 52 50 50 50 51 50 47 44 45 47 48 49 51 52 53 55 55 55 54 54 52 50 51 51 51 51 51 51 50 48 47 48 50 51 52 54 55 56 56 55 54 54 55 56 56 57 57 57 56 56
23 22 20 18 16 14 14 14 16 19 22 25 27 29 31 32 34 36 39 41 43 46 51 56 58 59 59 58 57 56 57 58 58 58 58 57 56 55 53 53 53 53 52 50 49 47 45 46 47 48 49 51 53 56 57 58 57 57 56 55 54 54 54 54 55 55 55 54 52 52 52 52 53 56 57 58 58 57 56 56 56 56 55 55 55 55 55 55
20 20 18 16 14 12 11 11 12 14 18 21 23 25 28 29 31 34 37 39 41 44 48 52 55 58 59 59 58 58 58 58 58 59 58 58 57 56 55 55 56 54 52 51 51 49 47 46 47 48 49 51 53 55 57 59 59 58 58 57 57 57 58 58 58 58 58 58 58 57 57 57 57 59 60 61 61 60 59 59 59 58 56 56 55 55 56 56
Wind_Direction
261 262 262 262 262 263 263 264 264 265 264 264 264 263 263 262 262 262 262 262 262 262 261 261 261 261 260 260 259 258 258 257 257 256 256 255 254 253 252 251 250 250 249 249 248 248 248 248 249 249 249 249 249 250 250 250 250 250 250 250 250 250 250 250 251 252 253 254 254 254 254 254 254 255 255 256 256 257 258 258 259 260 261 262 262 262 263 262
262 262 263 263 264 264 265 266 266 267 266 266 265 264 263 263 263 262 262 262 262 262 262 262 262 261 261 260 260 259 258 257 257 256 256 255 254 254 253 251 250 250 249 249 249 248 248 248 249 249 249 249 249 250 250 250 250 250 250 250 250 250 250 251 251 252 253 254 253 254 255 255 255 255 256 256 256 257 258 258 259 260 260 261 262 263 263 264
263 264 264 265 265 266 267 268 268 268 267 267 266 265 264 263 263 263 263 263 263 263 263 262 262 262 262 261 260 259 259 258 257 256 255 255 254 254 253 252 251 250 249 249 249 249 248 248 249 249 249 249 249 249 250 250 250 250 250 250 250 250 251 251 251 252 252 253 253 254 255 255 255 256 257 257 257 257 258 258 259 259 259 259 261 262 263 264
265 265 266 267 267 268 269 269 269 268 267 267 266 265 264 264 264 263 263 263 263 263 263 263 263 263 262 262 261 260 259 258 257 256 255 254 253 253 252 252 251 250 249 249 249 249 249 249 249 248 248 248 249 249 249 250 250 250 250 251 250 251 252 251 251 252 252 253 253 253 254 255 256 256 257 258 258 258 257 258 259 259 260 260 260 261 262 263
266 267 267 268 269 269 269 269 268 268 267 266 266 265 265 264 264 264 264 264 264 264 264 264 264 264 263 262 262 261 260 258 257 256 255 254 253 252 252 251 251 250 250 249 248 248 249 249 249 249 249 248 248 248 249 249 249 250 250 250 251 251 252 251 252 252 252 252 253 253 254 255 255 256 257 258 258 259 259 259 259 260 261 261 260 260 261 263
267 268 268 269 269 269 269 269 268 267 267 266 266 266 265 265 265 265 265 265 265 265 265 265 265 264 264 263 262 261 260 258 257 256 254 253 252 251 251 251 250 250 249 249 248 248 248 248 248 248 248 248 248 248 248 249 249 249 250 250 251 251 251 252 252 252 252 252 253 253 254 254 254 255 256 257 258 260 260 259 259 260 260 260 260 261 262 262
267 268 268 268 269 269 269 268 268 268 267 267 266 266 266 266 266 266 266 266 266 266 266 266 265 264 264 263 262 261 260 258 257 255 254 253 252 251 250 250 249 249 249 248 248 248 248 248 248 248 248 248 248 248 248 248 249 249 249 250 250 250 251 251 251 251 252 252 252 253 254 254 254 255 256 257 258 260 261 260 260 259 258 258 260 262 263 263
267 268 268 268 268 269 269 269 268 268 268 268 267 267 267 267 267 267 268 267 267 267 267 266 265 264 263 262 261 260 259 258 256 255 254 253 252 251 250 249 249 248 248 248 248 247 247 247 247 248 248 248 247 247 248 248 248 248 248 249 249 250 250 250 250 251 251 251 252 253 253 254 254 255 256 257 257 259 261 261 261 259 258 259 260 262 263 264
267 268 268 268 269 269 269 269 269 269 269 269 269 269 269 269 269 269 269 268 268 267 267 266 265 264 262 262 261 260 259 257 256 256 255 253 252 251 250 249 248 248 247 247 247 247 247 247 247 247 247 247 247 247 247 247 247 247 248 248 248 249 249 249 249 250 250 250 251 252 253 254 254 255 256 256 257 259 260 261 261 261 261 261 261 262 264 265
267 268 268 269 269 269 269 269 269 270 270 270 270 270 270 270 270 269 269 268 268 267 266 265 264 263 262 261 260 260 259 257 256 255 255 254 252 251 249 248 247 247 246 246 246 246 246 246 246 246 246 246 245 246 246 246 246 247 247 247 247 248 248 248 248 249 249 250 250 251 252 253 255 255 255 256 257 258 259 260 260 261 262 262 263 264 265 265
268 268 269 269 269 269 270 270 270 270 270 270 270 270 270 270 270 269 268 268 267 266 265 265 264 263 262 261 261 260 258 257 257 255 254 253 252 250 249 248 247 246 245 245 245 245 245 245 245 244 244 245 245 245 245 245 246 247 247 247 247 247 248 248 248 248 249 250 250 251 252 253 254 255 255 256 257 258 258 259 260 261 262 263 264 264 265 265
268 269 269 269 270 270 270 270 270 270 270 270 270 270 270 269 269 268 268 267 266 265 264 264 263 263 262 261 261 260 258 258 257 255 254 253 251 250 248 247 246 245 244 244 243 243 243 243 243 243 244 244 244 244 244 245 246 246 247 247 247 247 248 248 248 248 249 249 250 251 252 252 253 254 255 256 257 257 258 259 260 261 261 262 263 264 265 266
267 268 268 269 269 269 270 270 270 270 270 270 270 269 269 268 268 267 267 266 265 265 264 263 263 263 262 262 261 260 259 257 256 255 254 252 251 249 247 246 245 244 243 243 242 242 242 242 242 242 243 243 243 244 244 245 245 245 246 247 247 248 248 248 248 248 249 249 250 250 251 251 252 254 254 255 257 257 258 259 260 260 261 262 263 264 265 266
266 267 268 268 268 269 269 269 269 270 269 269 269 268 268 267 267 266 266 265 265 264 264 263 263 263 262 262 261 260 258 257 256 255 253 252 250 248 247 246 244 243 242 242 242 241 241 241 241 242 242 242 243 243 243 244 245 245 247 247 247 248 248 247 247 248 249 249 249 250 251 251 252 253 254 255 257 257 258 259 260 260 261 262 263 264 266 267
265 266 267 267 267 268 269 269 270 270 269 269 268 267 266 266 266 266 266 265 265 264 264 264 263 263 263 262 261 260 258 257 255 254 253 251 250 248 247 245 244 243 242 241 241 241 240 240 241 241 241 242 242 241 242 243 244 245 246 247 247 248 247 247 247 248 248 248 249 250 251 252 251 252 253 254 256 257 258 259 260 260 261 263 264 265 266 268
264 265 266 267 267 268 268 270 270 270 269 268 266 265 265 265 265 266 266 265 265 264 264 263 264 263 263 262 261 259 257 256 255 254 252 251 250 248 246 245 244 242 241 241 240 240 240 240 240 240 240 241 241 241 242 243 244 245 246 247 247 247 248 248 247 248 249 249 250 251 251 251 251 251 253 254 255 257 258 259 261 261 262 263 264 265 266 267
265 265 266 267 267 267 268 269 270 270 269 267 265 264 264 265 265 266 266 266 265 264 264 264 264 264 263 262 260 258 257 256 255 254 252 251 249 248 246 244 243 241 240 240 240 240 240 239 239 239 239 240 240 241 241 242 243 244 245 246 246 247 249 249 247 248 250 249 250 250 251 252 252 252 252 253 255 256 258 259 261 262 262 263 264 265 266 268
265 266 267 267 267 267 268 269 270 270 269 266 264 263 264 265 266 266 266 266 265 265 265 265 265 265 264 262 260 259 258 256 255 253 252 251 249 247 245 244 242 241 240 239 239 239 239 239 239 239 239 239 239 240 240 240 241 243 244 245 247 247 249 249 247 248 250 250 250 251 251 252 253 252 252 254 255 257 258 259 261 263 263 263 264 265 267 268
265 266 266 266 266 266 266 268 269 269 268 265 263 263 264 264 266 267 267 266 265 265 265 265 266 266 264 262 261 260 258 256 255 253 252 250 248 246 244 243 242 240 240 239 238 238 238 238 238 238 238 238 238 239 239 240 242 243 245 245 246 246 247 248 247 247 249 249 249 250 251 253 253 252 253 255 256 257 259 260 261 263 263 264 265 266 267 268
264 265 265 265 265 265 265 266 267 268 267 264 263 263 264 264 266 267 267 266 266 265 265 266 267 266 265 263 262 260 258 256 255 253 251 249 247 245 244 242 241 240 239 239 238 238 237 238 238 237 237 238 238 239 240 241 242 242 243 243 244 245 245 247 246 246 249 249 249 251 252 253 254 254 254 256 257 258 259 260 261 263 264 265 266 266 266 268
262 263 264 264 264 264 265 264 265 266 265 263 263 264 264 265 266 267 267 266 265 265 265 266 267 266 265 264 262 260 258 256 254 252 251 249 247 245 243 242 241 240 239 239 238 238 237 237 237 237 237 238 238 239 239 239 239 240 242 242 243 244 245 247 247 246 248 249 249 251 252 253 255 255 255 256 257 258 259 260 261 263 264 265 266 265 266 268
261 262 262 263 263 263 263 263 263 264 263 262 263 264 265 265 266 267 267 265 265 265 265 266 267 266 265 264 262 260 258 256 254 253 251 249 247 245 244 242 241 240 239 238 238 237 237 236 236 237 237 237 237 238 237 238 239 240 241 242 243 244 245 247 247 246 247 249 250 251 252 254 255 256 256 256 257 258 259 260 261 262 264 264 264 265 267 269
260 260 260 261 262 262 262 261 260 261 262 262 263 264 265 265 266 266 266 265 264 265 265 265 267 266 264 263 262 261 259 256 254 253 251 249 247 246 244 242 241 240 239 237 237 236 236 235 236 236 236 236 236 237 237 237 239 240 241 242 243 244 246 246 246 246 248 250 251 251 252 254 256 257 256 256 257 258 259 260 261 263 264 264 265 266 267 268
258 259 259 259 260 260 261 259 258 260 261 261 263 264 265 265 266 266 266 264 263 263 265 265 266 265 263 262 262 261 259 256 254 252 251 249 247 246 244 243 242 240 238 237 236 236 235 235 236 235 235 235 236 236 237 237 238 239 240 241 242 244 246 246 247 248 249 250 251 251 252 254 256 257 257 257 257 258 259 261 262 263 263 264 265 265 267 269
257 257 257 258 258 259 260 258 257 259 260 261 263 264 264 265 265 266 265 264 262 262 264 264 264 264 263 262 261 260 258 255 253 251 250 248 247 246 244 243 241 240 239 237 237 236 235 235 234 234 235 235 236 237 237 237 238 239 240 241 242 244 246 246 248 249 249 250 251 251 252 254 255 256 257 257 258 259 260 260 261 263 263 264 266 266 268 270
256 256 256 257 257 258 258 257 256 258 260 261 262 263 264 264 265 265 265 264 262 260 262 264 264 263 263 262 261 260 258 255 253 251 250 248 246 245 243 242 241 240 239 237 237 236 234 234 234 234 235 236 236 237 237 238 239 240 240 241 243 244 246 246 246 248 249 250 251 251 252 253 254 256 257 258 259 260 260 260 262 262 261 263 264 265 268 269
255 256 255 256 256 256 257 256 256 257 259 261 262 263 264 264 264 265 264 264 262 260 261 263 263 261 261 261 260 259 258 255 252 250 248 247 246 244 243 242 240 239 239 237 236 235 233 233 234 234 235 236 236 237 238 238 239 240 241 242 243 243 245 245 245 247 248 250 251 251 251 252 254 256 257 257 258 258 259 262 263 262 261 264 262 261 264 268
255 255 255 255 256 256 256 256 256 257 258 260 261 262 263 263 263 264 264 264 263 260 259 260 261 260 260 260 260 259 257 254 252 249 248 246 245 244 243 242 240 239 238 237 236 235 234 234 234 235 236 236 236 237 238 239 239 240 241 242 242 243 244 244 245 246 247 248 250 251 251 253 253 254 256 257 258 258 259 261 263 263 264 265 261 259 261 264
255 254 254 255 255 256 255 255 256 257 257 258 260 261 262 263 263 263 263 264 263 261 257 257 259 259 259 259 258 257 256 255 253 250 247 245 243 243 242 241 240 238 237 236 235 234 234 234 234 234 235 235 236 237 237 238 238 239 240 240 241 241 242 243 243 244 246 246 248 250 251 252 252 253 256 258 259 259 259 259 259 260 259 257 258 261 263 258
254 254 254 255 255 255 255 254 255 256 256 257 258 260 262 263 263 262 263 263 262 260 257 256 257 258 257 257 257 256 256 256 254 250 247 245 244 242 242 241 240 238 237 236 234 233 233 232 232 233 233 234 234 235 236 236 237 237 239 239 240 240 241 242 243 243 245 246 247 249 250 251 252 252 253 255 257 258 258 256 254 253 249 248 250 255 258 250
254 254 255 255 255 255 254 254 254 254 256 257 258 259 261 262 262 262 262 260 258 258 258 256 255 255 256 256 256 255 255 255 252 250 247 246 244 242 241 240 239 237 236 235 233 232 232 232 232 233 233 233 233 234 235 236 236 237 238 239 239 240 241 242 243 243 245 246 246 247 248 251 252 250 251 255 256 256 256 254 250 247 242 240 240 243 246 239
255 255 256 256 255 255 255 255 254 255 256 257 257 258 259 261 262 262 260 258 257 257 257 256 254 254 255 255 255 254 254 254 253 251 248 245 244 242 240 239 238 237 236 234 232 232 232 232 232 233 233 233 233 234 235 236 236 237 237 238 239 240 240 240 242 242 244 245 245 246 247 249 251 251 250 254 256 254 253 251 250 247 243 240 239 239 240 236
257 257 257 257 257 256 256 256 256 256 256 257 257 257 258 260 262 260 257 256 256 255 255 256 256 255 254 255 254 253 253 252 252 251 248 246 245 242 240 238 238 238 237 235 234 233 233 233 233 234 234 234 234 234 235 235 236 236 237 237 237 239 240 239 240 242 242 243 243 244 245 247 249 250 248 249 251 251 249 247 248 248 246 242 236 234 236 236
258 259 259 259 259 258 257 257 257 257 257 257 257 256 257 259 259 257 255 255 254 254 255 255 255 255 254 253 252 251 249 250 251 250 248 247 245 243 241 238 237 237 236 235 234 234 234 233 234 234 234 235 234 234 235 235 235 236 236 237 237 239 241 240 240 241 242 243 243 243 245 245 247 249 248 246 246 249 251 247 243 242 240 235 229 230 235 238
260 260 260 260 260 259 258 257 257 257 257 257 256 256 257 257 255 253 253 253 253 253 254 255 254 255 253 251 249 249 248 247 249 250 248 247 245 243 241 238 236 236 235 234 234 233 234 233 233 234 234 235 235 235 235 235 236 237 236 236 237 239 240 241 241 242 243 244 244 245 246 247 248 249 248 248 248 250 251 249 244 241 238 235 232 235 239 240
261 260 260 260 259 259 258 257 257 257 256 256 256 257 256 254 252 251 252 253 254 253 253 254 253 252 252 250 247 247 248 246 246 248 248 247 245 243 242 238 237 237 235 234 234 233 233 233 233 233 234 234 236 236 235 236 236 237 238 237 237 238 239 240 241 242 243 244 244 244 246 247 246 244 244 248 250 246 244 247 248 247 244 242 238 236 237 240
261 261 260 260 259 258 258 257 257 257 256 256 256 256 254 252 251 251 252 253 253 251 250 251 251 250 250 249 246 244 245 244 244 246 246 244 243 242 242 240 238 238 236 235 235 234 233 234 234 234 235 235 236 237 237 237 237 237 238 239 238 238 239 240 241 242 243 245 245 244 245 245 245 244 242 241 241 238 238 245 249 247 245 245 243 237 235 236
261 261 261 260 259 259 258 257 257 256 256 256 255 254 253 251 250 250 251 251 251 250 248 249 249 248 247 248 246 242 242 242 241 242 241 241 242 242 242 241 238 238 237 236 237 236 235 236 235 234 235 236 237 237 237 238 238 237 237 239 239 240 240 240 242 243 243 244 245 244 245 246 245 245 243 242 243 244 246 248 247 246 246 248 247 241 236 235
263 262 261 261 261 260 260 258 258 257 257 256 254 252 251 249 249 249 249 249 250 249 247 245 245 245 245 246 244 240 239 239 237 238 240 240 240 239 240 239 237 237 236 236 237 237 236 237 236 235 235 236 236 237 237 238 239 237 237 238 239 240 241 241 243 244 244 244 245 245 245 246 247 247 247 248 249 250 250 248 246 246 246 245 247 247 246 243
266 264 263 263 262 262 261 260 259 258 257 255 253 252 250 249 249 249 249 249 249 248 246 244 244 244 244 244 242 238 237 237 236 236 239 238 236 236 238 238 236 235 234 234 235 235 235 236 238 237 236 236 236 236 235 236 237 238 238 239 239 240 240 240 242 244 244 244 245 246 245 245 246 247 247 247 245 246 247 246 246 247 246 245 247 251 250 247
269 267 266 265 264 262 261 260 259 258 256 255 253 251 250 249 249 248 247 247 248 247 245 244 242 241 241 242 242 238 234 235 235 235 236 236 235 235 236 235 234 234 233 232 232 232 233 234 235 237 236 235 235 235 235 237 237 238 239 239 239 239 240 239 240 242 244 244 245 246 246 245 244 243 244 244 244 244 245 247 249 249 249 249 250 250 248 246
272 270 268 266 265 263 262 260 258 257 255 254 252 250 249 248 247 246 245 245 245 245 244 242 239 239 239 239 239 237 234 232 232 233 235 234 232 234 235 233 232 232 232 231 231 231 232 233 234 236 237 236 235 235 236 237 237 237 238 239 239 240 240 241 241 242 243 244 244 245 246 246 246 246 245 245 245 244 244 247 250 251 251 250 249 248 248 248
274 273 270 268 266 264 262 261 259 256 255 253 251 250 248 245 243 244 243 243 243 243 242 240 238 237 236 236 237 237 235 232 231 232 235 234 232 232 235 235 233 232 232 231 231 231 231 232 232 234 237 238 236 234 235 236 236 236 237 239 239 240 240 241 241 242 242 243 244 244 245 245 246 246 246 246 246 246 245 245 248 250 250 250 249 248 249 250
277 275 273 271 269 266 263 262 260 256 254 252 250 248 246 243 242 242 242 241 241 240 240 238 236 235 234 234 234 235 234 232 230 231 233 234 234 233 234 235 235 235 234 232 231 231 231 230 230 232 234 237 236 234 235 235 235 236 236 237 239 239 239 239 240 241 242 243 244 244 245 245 245 246 247 248 248 248 247 247 247 248 249 250 249 248 249 250
282 280 278 276 273 270 265 261 260 258 254 250 247 246 245 242 241 240 239 239 238 238 237 237 235 234 232 232 231 231 232 231 229 229 231 232 234 235 235 236 236 236 236 234 233 233 233 231 229 229 231 233 233 232 233 234 233 234 234 235 236 237 237 237 238 240 240 241 243 244 245 245 246 246 248 249 249 248 248 248 249 249 248 248 247 247 247 247
287 285 283 280 276 272 268 263 259 257 254 249 245 243 243 241 239 238 237 237 237 236 236 236 235 232 231 230 229 229 230 230 230 229 230 230 231 234 236 236 235 236 236 236 235 234 235 234 232 231 230 231 231 231 232 232 233 234 233 233 234 235 236 236 237 238 239 241 243 244 244 246 247 246 246 247 248 248 248 249 249 248 247 246 245 245 245 244
292 290 287 283 277 273 270 266 260 256 253 250 244 241 241 240 238 236 236 235 235 234 234 234 233 232 230 229 229 228 228 229 230 230 230 230 229 232 235 235 236 237 237 237 236 235 235 235 235 235 234 233 233 232 233 233 233 233 232 232 234 235 236 237 237 238 240 241 242 243 244 247 249 248 247 248 247 247 247 248 248 247 246 245 244 243 242 241
296 294 291 286 279 272 268 264 260 255 252 248 243 240 239 238 237 236 235 234 233 232 231 231 231 230 230 229 228 228 227 228 229 230 231 231 231 233 234 234 235 237 238 238 237 236 236 235 235 235 237 237 236 234 235 235 235 235 233 233 234 235 237 238 240 240 240 240 242 242 244 246 248 249 250 251 250 248 247 247 248 248 248 247 247 245 245 246
304 303 300 295 287 277 267 261 257 252 248 243 239 237 236 235 234 234 233 232 230 229 229 229 229 229 229 228 227 227 227 228 229 231 232 232 232 233 233 232 234 237 238 238 237 236 236 236 235 236 237 239 238 237 237 237 237 237 236 235 236 236 237 239 240 241 242 242 243 242 241 242 245 247 249 252 252 250 249 248 249 249 250 250 250 250 250 251
314 311 308 304 296 285 273 263 255 249 245 240 235 232 231 231 230 230 229 229 228 228 228 228 228 228 228 228 228 227 227 229 229 230 231 232 232 233 232 231 232 234 236 237 237 237 237 237 237 237 238 239 238 238 239 238 238 238 237 237 237 238 238 238 239 240 241 242 242 242 241 241 243 245 247 249 251 251 251 251 250 250 251 253 254 255 255 256
320 319 317 313 306 296 282 268 258 250 244 240 235 230 228 226 226 226 226 226 226 225 226 227 227 228 228 228 228 227 227 228 229 230 231 232 233 233 233 232 232 232 234 236 237 238 238 239 239 238 239 239 239 239 240 240 240 239 238 238 238 238 239 239 240 240 241 241 242 243 242 242 243 245 247 249 250 252 253 254 255 255 256 256 257 259 259 260
327 327 326 323 317 307 292 276 263 253 245 241 236 231 226 223 221 222 223 223 223 222 224 225 225 226 227 227 227 226 227 227 228 229 230 231 233 233 233 233 233 233 233 234 236 238 239 240 241 240 239 240 240 240 240 241 242 242 242 242 241 240 240 240 241 241 242 242 243 244 244 244 245 246 248 249 251 253 254 255 256 258 259 260 261 261 262 262
Height
10658 10658 10659 10660 10660 10661 10662 10663 10663 10664 10664 10664 10665 10665 10665 10666 10666 10667 10668 10669 10670 10670 10671 10672 10672 10673 10675 10676 10677 10679 10680 10682 10684 10686 10688 10689 10691 10694 10697 10699 10702 10705 10708 10710 10712 10713 10714 10716 10718 10722 10725 10729 10730 10733 10736 10738 10740 10743 10746 10746 10748 10750 10748 10750 10757 10759 10758 10765 10776 10770 10764 10770 10774 10773 10771 10772 10774 10774 10775 10779 10780 10784 10787 10784 10782 10780 10779 10782
10651 10651 10652 10652 10653 10654 10655 10655 10655 10656 10656 10656 10656 10656 10657 10657 10658 10658 10659 10660 10661 10662 10662 10663 10664 10665 10666 10667 10668 10670 10672 10673 10676 10678 10679 10681 10683 10684 10687 10690 10693 10696 10699 10701 10702 10704 10706 10708 10711 10714 10718 10721 10722 10726 10728 10729 10732 10735 10736 10737 10740 10740 10739 10746 10751 10752 10753 10759 10765 10760 10758 10763 10765 10765 10763 10764 10766 10767 10768 10772 10776 10778 10781 10782 10777 10773 10770 10771
10644 10644 10645 10645 10646 10646 10647 10647 10648 10648 10648 10648 10648 10648 10648 10649 10649 10650 10651 10651 10652 10653 10654 10654 10655 10656 10657 10658 10659 10661 10663 10665 10668 10669 10670 10672 10673 10675 10678 10681 10684 10687 10690 10692 10694 10696 10698 10700 10703 10706 10709 10713 10715 10718 10720 10721 10724 10725 10727 10730 10730 10730 10733 10741 10743 10745 10749 10751 10755 10751 10750 10755 10757 10758 10756 10756 10758 10759 10761 10766 10771 10771 10773 10775 10771 10766 10764 10764
10637 10637 10638 10638 10638 10639 10639 10639 10640 10640 10640 10640 10640 10639 10640 10640 10641 10641 10642 10643 10644 10644 10645 10646 10647 10647 10648 10649 10650 10652 10653 10656 10660 10660 10661 10663 10664 10666 10668 10672 10675 10678 10681 10683 10685 10687 10689 10692 10694 10697 10701 10705 10707 10710 10712 10713 10715 10715 10720 10720 10718 10724 10729 10732 10735 10740 10743 10743 10744 10743 10743 10748 10750 10750 10749 10750 10749 10749 10754 10761 10764 10764 10764 10765 10763 10759 10759 10759
10630 10630 10630 10631 10631 10631 10631 10632 10632 10632 10632 10632 10632 10631 10632 10633 10633 10633 10634 10634 10635 10636 10636 10637 10638 10638 10639 10640 10641 10643 10644 10649 10651 10650 10651 10654 10655 10657 10659 10663 10666 10669 10672 10674 10677 10679 10681 10683 10685 10689 10692 10696 10699 10702 10703 10704 10705 10708 10712 10709 10711 10720 10719 10723 10731 10733 10734 10735 10736 10735 10737 10740 10741 10742 10743 10742 10740 10740 10747 10754 10756 10759 10757 10755 10754 10752 10753 10754
10622 10623 10623 10623 10623 10624 10624 10624 10624 10624 10624 10624 10624 10624 10624 10625 10625 10625 10626 10626 10627 10628 10628 10629 10629 10630 10631 10631 10633 10634 10636 10641 10642 10640 10642 10645 10647 10649 10651 10654 10657 10660 10663 10665 10668 10670 10672 10675 10677 10681 10683 10687 10692 10694 10694 10695 10698 10701 10701 10700 10706 10711 10710 10718 10725 10723 10725 10728 10727 10728 10729 10731 10732 10735 10736 10734 10735 10735 10737 10744 10750 10754 10751 10747 10747 10746 10748 10749
10615 10616 10616 10616 10616 10617 10616 10617 10617 10617 10617 10617 10617 10616 10617 10617 10617 10617 10618 10618 10619 10619 10620 10620 10621 10622 10622 10623 10625 10626 10629 10634 10633 10631 10634 10637 10638 10641 10643 10645 10649 10651 10654 10657 10659 10662 10664 10667 10669 10672 10675 10678 10683 10685 10685 10688 10691 10692 10692 10694 10699 10701 10703 10712 10715 10714 10718 10720 10720 10721 10721 10723 10725 10728 10730 10727 10731 10729 10726 10734 10742 10745 10743 10742 10742 10741 10742 10744
10608 10608 10609 10609 10609 10609 10609 10609 10609 10609 10610 10610 10609 10609 10609 10610 10610 10610 10610 10610 10611 10611 10612 10612 10613 10614 10614 10615 10617 10618 10623 10625 10623 10624 10626 10628 10630 10633 10635 10638 10640 10643 10646 10648 10650 10654 10656 10659 10661 10663 10666 10669 10675 10676 10677 10682 10683 10682 10684 10687 10691 10693 10697 10703 10706 10707 10709 10711 10714 10714 10713 10716 10718 10722 10722 10720 10725 10723 10719 10726 10729 10730 10734 10735 10736 10735 10737 10739
10601 10601 10602 10602 10602 10602 10602 10602 10602 10602 10602 10602 10602 10602 10602 10602 10602 10602 10602 10602 10603 10604 10604 10604 10605 10606 10607 10608 10609 10612 10616 10616 10615 10617 10618 10620 10623 10625 10628 10630 10632 10635 10638 10640 10643 10646 10648 10651 10653 10655 10658 10661 10667 10667 10669 10675 10672 10673 10677 10680 10684 10685 10688 10694 10698 10699 10700 10704 10707 10706 10706 10709 10712 10715 10714 10714 10719 10716 10714 10718 10716 10717 10723 10726 10727 10728 10731 10733
10594 10594 10595 10595 10595 10595 10595 10595 10595 10595 10595 10595 10595 10595 10595 10594 10595 10594 10594 10595 10595 10596 10597 10597 10598 10599 10600 10601 10602 10606 10609 10607 10608 10610 10610 10612 10615 10617 10621 10622 10624 10627 10630 10632 10635 10638 10640 10643 10644 10648 10650 10652 10658 10658 10662 10666 10662 10667 10671 10671 10676 10676 10680 10687 10689 10691 10693 10697 10700 10700 10700 10703 10708 10706 10705 10709 10711 10708 10709 10709 10707 10709 10714 10716 10719 10721 10724 10727
10587 10587 10588 10588 10588 10588 10588 10588 10588 10588 10588 10588 10588 10588 10587 10587 10587 10587 10587 10587 10588 10589 10589 10590 10591 10592 10594 10594 10596 10599 10600 10599 10601 10602 10602 10605 10607 10610 10613 10614 10616 10619 10622 10625 10627 10630 10632 10634 10636 10639 10639 10644 10650 10650 10655 10657 10656 10663 10662 10664 10670 10668 10674 10680 10682 10685 10687 10690 10693 10694 10695 10699 10702 10696 10697 10704 10702 10700 10702 10701 10700 10703 10707 10709 10711 10714 10717 10719
10580 10580 10581 10581 10581 10581 10581 10581 10581 10581 10581 10581 10581 10581 10580 10580 10580 10580 10581 10581 10581 10581 10582 10583 10584 10585 10587 10588 10589 10591 10592 10592 10593 10594 10595 10597 10599 10602 10604 10606 10609 10611 10615 10617 10619 10622 10624 10626 10627 10628 10633 10640 10641 10641 10650 10650 10651 10656 10653 10658 10662 10661 10669 10674 10675 10678 10680 10684 10686 10688 10689 10693 10693 10687 10691 10698 10693 10693 10694 10693 10694 10697 10700 10703 10705 10707 10710 10710
10573 10573 10574 10574 10574 10574 10574 10574 10575 10575 10575 10575 10574 10574 10574 10574 10574 10574 10574 10574 10574 10575 10576 10577 10577 10579 10579 10581 10582 10583 10585 10585 10585 10586 10587 10589 10591 10594 10596 10598 10601 10604 10607 10609 10611 10613 10615 10618 10618 10622 10628 10631 10631 10639 10646 10642 10644 10648 10646 10651 10655 10657 10664 10666 10667 10672 10674 10677 10679 10682 10683 10686 10686 10679 10685 10691 10685 10685 10687 10686 10688 10690 10693 10697 10699 10701 10702 10703
10566 10566 10567 10567 10567 10567 10567 10568 10568 10568 10568 10568 10568 10567 10567 10568 10568 10568 10568 10568 10568 10568 10569 10570 10571 10572 10572 10574 10575 10575 10577 10578 10578 10579 10580 10581 10583 10585 10588 10591 10594 10597 10600 10601 10602 10604 10607 10610 10611 10616 10621 10622 10628 10636 10636 10633 10638 10641 10641 10646 10650 10653 10657 10657 10661 10666 10668 10670 10673 10675 10675 10679 10677 10672 10680 10684 10677 10677 10679 10680 10681 10682 10688 10692 10693 10695 10696 10698
10559 10560 10560 10560 10561 10561 10561 10561 10562 10562 10562 10562 10562 10561 10561 10562 10562 10562 10562 10562 10562 10562 10563 10564 10564 10565 10566 10568 10568 10568 10570 10571 10571 10571 10572 10573 10575 10579 10582 10584 10587 10590 10592 10593 10595 10597 10600 10603 10606 10610 10614 10617 10623 10626 10626 10629 10633 10634 10637 10641 10644 10647 10647 10650 10657 10660 10660 10663 10668 10669 10670 10670 10666 10668 10677 10675 10670 10671 10672 10675 10674 10675 10683 10686 10687 10689 10690 10693
10553 10554 10554 10554 10554 10554 10555 10555 10555 10556 10556 10556 10556 10555 10555 10556 10557 10556 10556 10556 10556 10556 10557 10557 10558 10558 10560 10561 10561 10561 10563 10563 10563 10564 10565 10566 10569 10572 10575 10577 10580 10582 10584 10586 10588 10590 10593 10596 10600 10604 10607 10611 10616 10618 10621 10624 10626 10629 10632 10634 10637 10640 10640 10644 10652 10652 10652 10659 10663 10662 10662 10659 10657 10666 10672 10665 10664 10666 10666 10669 10668 10670 10678 10680 10682 10683 10684 10687
10546 10547 10547 10548 10548 10548 10549 10549 10549 10549 10550 10550 10550 10549 10550 10551 10551 10551 10550 10550 10550 10550 10551 10551 10551 10552 10554 10555 10554 10555 10556 10556 10557 10558 10558 10560 10563 10566 10568 10571 10573 10575 10577 10579 10582 10584 10587 10590 10594 10598 10602 10605 10609 10612 10616 10619 10620 10623 10626 10627 10631 10634 10634 10638 10646 10645 10646 10654 10655 10653 10654 10650 10652 10662 10662 10657 10660 10660 10661 10665 10662 10665 10672 10674 10676 10678 10679 10682
10539 10540 10541 10541 10542 10542 10543 10543 10543 10543 10543 10543 10543 10544 10544 10545 10545 10545 10544 10544 10544 10544 10545 10545 10545 10547 10549 10548 10548 10548 10549 10550 10550 10551 10552 10554 10557 10560 10562 10564 10566 10568 10570 10573 10576 10578 10581 10585 10588 10592 10597 10599 10603 10606 10609 10611 10613 10616 10619 10622 10626 10629 10629 10632 10638 10640 10642 10647 10647 10645 10647 10643 10647 10655 10654 10652 10655 10654 10656 10660 10658 10659 10665 10667 10670 10673 10674 10677
10532 10533 10534 10535 10535 10536 10536 10537 10537 10537 10537 10537 10537 10538 10539 10540 10540 10539 10538 10538 10539 10538 10539 10539 10539 10542 10542 10541 10542 10542 10543 10543 10544 10545 10547 10548 10551 10554 10555 10558 10560 10562 10564 10567 10570 10573 10576 10579 10583 10587 10590 10593 10597 10599 10602 10605 10609 10613 10615 10617 10620 10622 10623 10624 10630 10637 10638 10639 10639 10638 10639 10638 10640 10647 10648 10648 10649 10650 10651 10653 10653 10655 10659 10661 10665 10668 10669 10671
10525 10526 10527 10528 10529 10529 10530 10531 10531 10531 10531 10531 10531 10531 10533 10535 10535 10534 10533 10533 10533 10533 10533 10533 10534 10537 10536 10536 10536 10536 10536 10537 10538 10539 10541 10543 10546 10548 10549 10552 10554 10556 10559 10561 10564 10567 10570 10574 10577 10580 10583 10587 10591 10593 10597 10603 10606 10606 10606 10610 10611 10614 10617 10616 10623 10634 10632 10629 10632 10632 10633 10633 10633 10638 10644 10644 10644 10645 10645 10646 10648 10650 10653 10656 10659 10662 10664 10666
10518 10519 10520 10521 10522 10522 10523 10525 10525 10525 10525 10525 10525 10525 10527 10529 10530 10528 10527 10528 10528 10527 10528 10528 10529 10531 10531 10530 10530 10530 10531 10531 10532 10534 10535 10537 10540 10542 10544 10546 10548 10550 10553 10556 10559 10562 10565 10569 10571 10574 10579 10583 10585 10587 10592 10596 10596 10597 10599 10602 10605 10608 10610 10611 10621 10630 10624 10621 10626 10626 10627 10628 10627 10632 10639 10639 10637 10638 10639 10641 10644 10646 10649 10651 10653 10655 10658 10661
10511 10512 10513 10514 10515 10516 10516 10518 10519 10519 10519 10519 10519 10519 10521 10523 10524 10522 10522 10523 10523 10522 10522 10523 10524 10525 10526 10524 10523 10524 10526 10526 10527 10529 10530 10532 10535 10536 10539 10541 10543 10545 10548 10551 10553 10556 10560 10563 10565 10570 10575 10577 10578 10581 10586 10588 10588 10591 10593 10596 10599 10602 10604 10609 10617 10620 10615 10615 10619 10621 10623 10622 10622 10626 10631 10630 10630 10633 10634 10636 10640 10642 10643 10646 10648 10650 10653 10655
10503 10505 10506 10507 10508 10509 10510 10511 10513 10513 10513 10513 10513 10513 10515 10517 10518 10517 10516 10517 10518 10517 10516 10518 10519 10520 10520 10518 10518 10520 10521 10521 10523 10524 10525 10528 10530 10532 10534 10535 10538 10540 10543 10545 10548 10551 10554 10557 10562 10567 10569 10570 10572 10575 10579 10581 10583 10585 10587 10590 10594 10596 10599 10605 10609 10610 10611 10612 10613 10616 10617 10616 10618 10620 10621 10622 10624 10627 10628 10631 10635 10637 10638 10640 10642 10645 10649 10649
10496 10497 10499 10500 10502 10503 10503 10504 10507 10507 10507 10508 10507 10507 10509 10511 10512 10511 10511 10512 10514 10513 10511 10513 10515 10515 10514 10513 10514 10516 10516 10517 10519 10519 10521 10523 10525 10527 10528 10531 10533 10535 10537 10540 10543 10545 10549 10554 10558 10560 10561 10563 10566 10570 10573 10576 10577 10579 10582 10585 10588 10592 10595 10599 10602 10605 10607 10606 10606 10610 10611 10612 10613 10611 10613 10616 10618 10621 10624 10626 10630 10632 10633 10634 10637 10641 10644 10644
10489 10491 10492 10493 10495 10496 10496 10498 10500 10501 10502 10502 10501 10501 10503 10505 10505 10505 10505 10506 10509 10509 10506 10508 10510 10510 10509 10508 10510 10512 10512 10513 10514 10515 10516 10518 10520 10521 10523 10526 10528 10529 10531 10535 10538 10540 10546 10550 10552 10553 10555 10558 10561 10564 10567 10570 10571 10574 10578 10580 10584 10588 10590 10594 10599 10598 10599 10599 10600 10604 10606 10607 10606 10604 10606 10610 10612 10616 10619 10621 10625 10627 10627 10629 10632 10635 10638 10639
10482 10484 10485 10487 10488 10490 10490 10491 10493 10494 10496 10496 10494 10495 10497 10499 10499 10499 10500 10500 10503 10504 10502 10503 10505 10505 10504 10504 10506 10508 10508 10508 10509 10511 10512 10514 10515 10516 10518 10520 10522 10524 10527 10530 10533 10536 10542 10544 10545 10548 10551 10554 10557 10559 10562 10564 10567 10569 10573 10575 10580 10584 10585 10590 10593 10591 10593 10594 10594 10598 10600 10600 10599 10599 10602 10605 10608 10611 10614 10616 10620 10622 10623 10624 10626 10630 10633 10634
10476 10477 10478 10480 10481 10483 10484 10484 10485 10488 10490 10489 10488 10489 10491 10493 10493 10493 10494 10495 10498 10499 10498 10498 10499 10500 10499 10499 10502 10504 10504 10504 10505 10506 10508 10509 10510 10511 10513 10515 10517 10519 10522 10525 10528 10532 10536 10537 10539 10544 10546 10549 10552 10554 10557 10559 10562 10565 10568 10572 10577 10579 10581 10584 10585 10585 10588 10587 10588 10591 10593 10594 10595 10595 10596 10600 10604 10606 10609 10612 10615 10618 10619 10620 10622 10625 10628 10631
10470 10471 10471 10473 10475 10476 10477 10478 10479 10481 10483 10482 10483 10484 10485 10486 10487 10488 10489 10491 10492 10493 10493 10493 10493 10495 10495 10495 10497 10500 10500 10499 10500 10502 10504 10505 10506 10507 10508 10510 10513 10515 10518 10521 10523 10527 10530 10533 10536 10540 10541 10544 10546 10550 10553 10555 10558 10562 10564 10568 10571 10573 10576 10578 10579 10581 10582 10581 10583 10585 10587 10588 10588 10590 10592 10594 10599 10602 10605 10609 10611 10613 10616 10617 10618 10621 10625 10630
10463 10463 10464 10466 10468 10469 10471 10472 10473 10473 10474 10476 10477 10478 10478 10480 10482 10482 10484 10486 10486 10485 10487 10489 10489 10490 10491 10491 10493 10495 10495 10495 10497 10499 10499 10500 10501 10502 10504 10506 10508 10511 10513 10515 10518 10523 10526 10529 10532 10534 10535 10538 10543 10547 10548 10550 10554 10557 10559 10562 10566 10568 10571 10571 10573 10576 10575 10576 10579 10580 10582 10582 10581 10587 10589 10590 10595 10597 10601 10605 10606 10610 10613 10614 10616 10618 10622 10626
10456 10456 10457 10459 10461 10462 10464 10466 10466 10465 10466 10469 10471 10472 10473 10474 10476 10477 10480 10482 10478 10477 10481 10484 10485 10485 10486 10487 10489 10490 10491 10492 10494 10494 10495 10496 10497 10499 10500 10502 10504 10507 10508 10510 10515 10518 10520 10523 10525 10526 10529 10534 10538 10540 10541 10545 10549 10552 10554 10557 10560 10563 10565 10566 10569 10570 10570 10572 10575 10576 10577 10576 10577 10584 10586 10587 10592 10593 10596 10600 10601 10606 10609 10610 10612 10615 10617 10621
10449 10450 10451 10452 10454 10455 10457 10458 10458 10458 10460 10462 10465 10466 10467 10468 10470 10473 10476 10473 10469 10471 10475 10478 10480 10480 10481 10483 10484 10486 10487 10489 10489 10489 10491 10492 10493 10495 10497 10498 10500 10502 10503 10506 10510 10512 10514 10517 10520 10521 10525 10529 10532 10534 10537 10541 10544 10548 10550 10552 10556 10558 10560 10562 10563 10565 10565 10567 10570 10572 10573 10572 10573 10579 10583 10585 10588 10589 10591 10594 10597 10601 10603 10604 10607 10609 10611 10616
10442 10443 10444 10445 10447 10449 10450 10451 10451 10452 10453 10455 10458 10461 10461 10463 10465 10469 10469 10463 10462 10467 10469 10470 10474 10475 10477 10479 10480 10482 10483 10484 10485 10486 10487 10488 10489 10491 10493 10494 10496 10497 10499 10502 10504 10506 10509 10512 10514 10516 10520 10524 10527 10530 10533 10536 10540 10543 10545 10548 10552 10553 10554 10556 10558 10560 10561 10562 10565 10567 10568 10568 10568 10574 10582 10583 10583 10586 10588 10589 10592 10596 10596 10598 10600 10602 10606 10610
10436 10437 10437 10438 10440 10442 10443 10444 10444 10445 10446 10448 10451 10454 10456 10458 10462 10463 10459 10455 10457 10462 10463 10465 10469 10471 10473 10474 10475 10477 10478 10480 10481 10482 10483 10484 10485 10487 10489 10491 10493 10493 10495 10498 10500 10503 10505 10508 10510 10514 10517 10520 10523 10525 10528 10531 10535 10538 10540 10544 10548 10547 10547 10551 10553 10555 10555 10556 10559 10561 10563 10564 10564 10571 10579 10579 10577 10581 10584 10587 10589 10590 10591 10593 10595 10598 10603 10606
10430 10431 10431 10432 10432 10434 10436 10436 10437 10437 10439 10441 10444 10447 10451 10454 10456 10454 10449 10447 10451 10456 10458 10461 10463 10465 10468 10469 10470 10472 10473 10475 10477 10478 10480 10481 10482 10483 10485 10487 10489 10489 10491 10494 10497 10499 10501 10504 10507 10509 10512 10515 10517 10520 10523 10526 10529 10533 10536 10540 10542 10541 10542 10546 10549 10549 10549 10551 10554 10557 10558 10559 10562 10569 10574 10572 10572 10575 10579 10585 10588 10589 10589 10590 10593 10596 10600 10601
10424 10424 10424 10425 10425 10426 10428 10429 10430 10430 10431 10434 10436 10441 10446 10448 10448 10444 10440 10440 10446 10452 10454 10455 10458 10460 10462 10463 10465 10466 10468 10472 10473 10474 10476 10477 10478 10480 10481 10483 10484 10485 10488 10490 10492 10494 10496 10499 10501 10503 10507 10510 10512 10515 10519 10522 10526 10528 10531 10535 10537 10536 10538 10542 10544 10544 10545 10547 10551 10554 10554 10556 10561 10566 10566 10565 10568 10570 10574 10580 10585 10587 10588 10589 10593 10596 10596 10594
10417 10417 10417 10417 10418 10418 10420 10421 10422 10422 10424 10426 10430 10435 10438 10439 10438 10434 10432 10435 10441 10447 10449 10450 10453 10455 10455 10456 10459 10462 10465 10468 10470 10470 10472 10473 10474 10476 10476 10478 10480 10481 10484 10486 10487 10490 10492 10494 10496 10500 10503 10505 10507 10510 10514 10518 10521 10523 10527 10529 10530 10531 10534 10537 10538 10539 10540 10543 10546 10549 10550 10552 10556 10559 10560 10562 10563 10565 10568 10573 10577 10580 10582 10585 10589 10592 10591 10589
10410 10410 10410 10409 10410 10410 10411 10412 10413 10414 10415 10418 10423 10428 10429 10430 10428 10425 10427 10431 10435 10439 10443 10444 10446 10449 10449 10450 10455 10459 10461 10464 10466 10467 10468 10468 10469 10472 10472 10474 10476 10478 10480 10482 10483 10485 10487 10489 10493 10497 10498 10500 10503 10507 10511 10514 10516 10520 10522 10523 10524 10527 10529 10532 10533 10535 10537 10538 10541 10543 10544 10547 10549 10552 10557 10559 10559 10561 10564 10568 10571 10572 10574 10577 10580 10584 10585 10584
10403 10402 10401 10401 10401 10402 10403 10404 10405 10406 10407 10411 10417 10419 10419 10420 10419 10418 10422 10425 10425 10431 10437 10439 10441 10443 10443 10444 10450 10455 10457 10459 10461 10461 10463 10463 10466 10468 10468 10469 10473 10474 10476 10478 10478 10481 10484 10486 10490 10492 10493 10497 10500 10502 10507 10509 10511 10515 10516 10516 10520 10522 10524 10527 10529 10530 10532 10533 10535 10537 10539 10541 10543 10548 10553 10554 10556 10558 10560 10563 10565 10565 10566 10568 10570 10574 10576 10577
10395 10394 10393 10393 10393 10394 10394 10396 10397 10397 10399 10403 10407 10408 10408 10410 10410 10411 10415 10417 10417 10424 10431 10432 10434 10437 10438 10439 10444 10450 10452 10453 10455 10456 10457 10459 10462 10464 10463 10465 10469 10470 10471 10473 10474 10477 10480 10481 10484 10487 10489 10493 10495 10498 10502 10503 10504 10508 10510 10511 10515 10516 10518 10523 10524 10525 10527 10527 10528 10531 10534 10536 10538 10543 10548 10550 10553 10554 10554 10556 10557 10557 10559 10561 10562 10565 10567 10569
10387 10386 10386 10385 10386 10386 10385 10387 10388 10389 10391 10394 10396 10398 10399 10401 10403 10405 10408 10409 10410 10417 10422 10425 10429 10432 10432 10433 10438 10445 10446 10447 10450 10452 10452 10454 10457 10458 10458 10460 10464 10465 10467 10468 10469 10472 10475 10477 10480 10482 10485 10488 10490 10493 10495 10496 10499 10503 10504 10507 10509 10510 10513 10517 10518 10519 10520 10522 10523 10525 10528 10531 10533 10537 10541 10544 10547 10549 10549 10550 10550 10551 10552 10554 10555 10557 10559 10561
10378 10378 10378 10377 10377 10377 10377 10377 10379 10379 10381 10384 10386 10388 10390 10393 10396 10397 10400 10402 10403 10409 10413 10419 10424 10425 10425 10428 10433 10437 10440 10442 10445 10446 10446 10449 10452 10452 10452 10455 10457 10459 10461 10462 10464 10467 10470 10473 10475 10477 10480 10483 10483 10486 10490 10491 10495 10497 10499 10501 10503 10505 10507 10510 10513 10514 10515 10516 10519 10520 10521 10523 10526 10529 10533 10535 10539 10543 10545 10544 10543 10544 10545 10546 10548 10549 10551 10553
10369 10369 10369 10368 10367 10367 10367 10367 10368 10370 10371 10373 10376 10378 10381 10386 10388 10388 10391 10393 10396 10400 10405 10411 10417 10418 10420 10424 10425 10428 10434 10438 10439 10439 10440 10443 10445 10445 10446 10449 10451 10452 10454 10457 10460 10463 10466 10469 10471 10473 10476 10476 10478 10483 10486 10486 10489 10491 10493 10495 10497 10500 10502 10505 10508 10509 10509 10511 10513 10513 10514 10516 10518 10521 10525 10526 10530 10535 10539 10539 10538 10538 10539 10541 10542 10542 10543 10545
10361 10359 10359 10359 10358 10358 10358 10357 10358 10360 10361 10363 10366 10368 10372 10377 10377 10377 10382 10386 10388 10392 10397 10404 10408 10410 10414 10417 10418 10423 10428 10431 10433 10434 10435 10435 10438 10441 10442 10443 10445 10447 10449 10452 10456 10459 10461 10463 10467 10469 10471 10471 10475 10479 10479 10480 10483 10486 10488 10489 10491 10494 10497 10500 10502 10501 10502 10505 10506 10507 10508 10510 10511 10513 10515 10518 10522 10527 10532 10534 10533 10532 10534 10536 10536 10536 10537 10538
10353 10351 10350 10350 10350 10349 10349 10348 10348 10349 10351 10354 10357 10358 10361 10366 10367 10370 10375 10377 10380 10384 10390 10395 10399 10403 10407 10410 10414 10417 10420 10424 10428 10429 10428 10429 10433 10435 10436 10437 10440 10443 10446 10449 10451 10453 10454 10458 10462 10464 10465 10466 10470 10472 10472 10474 10479 10481 10482 10483 10486 10489 10492 10494 10495 10495 10497 10500 10500 10500 10502 10504 10505 10506 10508 10512 10516 10520 10523 10525 10525 10526 10529 10531 10530 10530 10531 10531
10345 10344 10343 10343 10342 10340 10340 10340 10339 10339 10341 10345 10347 10348 10351 10355 10358 10362 10365 10368 10372 10377 10382 10386 10390 10396 10400 10403 10407 10410 10413 10417 10420 10421 10422 10425 10427 10428 10429 10433 10436 10439 10442 10444 10446 10447 10449 10452 10455 10457 10459 10461 10463 10465 10466 10470 10473 10474 10476 10479 10481 10483 10485 10487 10489 10490 10492 10493 10493 10495 10496 10497 10499 10501 10503 10506 10509 10512 10515 10516 10517 10519 10522 10524 10524 10524 10525 10525
10339 10337 10336 10336 10334 10332 10332 10333 10332 10331 10332 10335 10338 10339 10341 10344 10349 10352 10356 10359 10365 10370 10374 10378 10384 10389 10392 10395 10399 10403 10407 10409 10411 10415 10417 10419 10421 10421 10423 10429 10432 10434 10437 10438 10441 10442 10444 10446 10448 10451 10453 10454 10455 10459 10462 10465 10467 10467 10470 10473 10474 10476 10479 10481 10482 10483 10485 10487 10489 10489 10489 10490 10493 10496 10498 10500 10502 10505 10508 10509 10510 10512 10514 10516 10519 10520 10520 10520
10333 10331 10330 10329 10327 10325 10324 10324 10324 10324 10325 10327 10330 10331 10332 10336 10340 10344 10347 10352 10358 10363 10367 10371 10377 10381 10384 10389 10393 10396 10400 10402 10404 10408 10409 10412 10416 10416 10418 10425 10429 10429 10431 10433 10436 10437 10439 10441 10443 10445 10446 10448 10451 10456 10458 10459 10460 10461 10465 10467 10468 10471 10474 10474 10475 10478 10481 10483 10482 10482 10485 10486 10487 10489 10491 10492 10495 10500 10503 10503 10503 10504 10506 10508 10512 10514 10513 10513
10328 10326 10324 10322 10321 10319 10318 10317 10317 10318 10318 10320 10323 10324 10326 10329 10333 10336 10340 10345 10351 10355 10359 10364 10368 10372 10377 10382 10385 10389 10393 10395 10397 10400 10403 10407 10411 10412 10415 10422 10424 10424 10426 10429 10431 10432 10434 10436 10437 10438 10440 10443 10448 10451 10451 10452 10454 10456 10459 10461 10463 10466 10467 10468 10471 10473 10475 10475 10475 10478 10482 10481 10479 10482 10485 10485 10487 10492 10495 10496 10496 10497 10499 10501 10503 10505 10506 10507
10323 10321 10319 10316 10315 10313 10312 10311 10312 10312 10312 10314 10315 10317 10319 10323 10327 10330 10334 10338 10343 10347 10352 10356 10360 10364 10369 10374 10378 10383 10386 10388 10392 10395 10398 10402 10405 10407 10413 10418 10419 10420 10421 10422 10425 10427 10428 10430 10432 10433 10435 10438 10442 10444 10444 10446 10448 10449 10453 10456 10458 10460 10461 10464 10466 10467 10468 10469 10471 10474 10475 10473 10473 10476 10478 10478 10479 10482 10486 10488 10489 10490 10491 10492 10494 10497 10498 10500
10319 10316 10314 10312 10310 10308 10307 10307 10307 10307 10307 10308 10309 10311 10314 10317 10320 10324 10328 10331 10336 10340 10345 10348 10353 10357 10362 10367 10372 10378 10380 10382 10386 10389 10391 10395 10398 10402 10407 10411 10413 10413 10413 10415 10419 10422 10423 10425 10426 10429 10431 10433 10435 10436 10437 10439 10441 10443 10447 10450 10451 10453 10455 10458 10459 10460 10462 10464 10465 10465 10466 10468 10469 10471 10471 10471 10472 10474 10477 10480 10482 10483 10484 10485 10487 10489 10491 10493
10316 10313 10310 10308 10306 10304 10303 10303 10303 10303 10303 10303 10305 10307 10309 10312 10315 10319 10322 10326 10330 10335 10338 10342 10347 10351 10356 10361 10367 10371 10374 10376 10380 10382 10385 10389 10392 10396 10401 10403 10404 10406 10408 10411 10414 10416 10418 10420 10421 10424 10426 10427 10428 10429 10431 10432 10434 10437 10440 10442 10445 10447 10449 10451 10452 10453 10455 10457 10458 10458 10459 10462 10464 10465 10465 10465 10466 10468 10471 10473 10474 10476 10478 10479 10481 10483 10484 10486
10313 10310 10308 10305 10303 10301 10300 10300 10300 10300 10300 10300 10302 10304 10306 10309 10311 10314 10317 10321 10325 10329 10331 10335 10340 10345 10350 10355 10360 10364 10367 10370 10373 10376 10379 10383 10386 10390 10393 10394 10396 10400 10404 10406 10408 10410 10413 10414 10416 10418 10420 10421 10422 10423 10424 10425 10426 10430 10433 10436 10439 10441 10442 10443 10445 10446 10448 10450 10450 10451 10453 10455 10457 10458 10458 10459 10460 10462 10465 10466 10468 10469 10471 10473 10474 10476 10476 10477